User: anonymous   Login
Location: Zapote
(9.9191°N, 84.0597°W)
Time: 12:36:12
(UTC-06:00)
Language:

EO-88 - Orbit

View from above orbital plane
View from above orbital plane
View from above satellite
View from above satellite

Ground track
Ground track

The orbit data is extracted from the following two-line orbital elements,

1 42017U 17008BX  21105.76004111  .00002108  00000-0  80213-4 0  9998
2 42017  97.3203 174.4797 0005193 347.8728  12.2385 15.27842863231683
Epoch (UTC): 15 April 2021 18:14:27
Eccentricity: 0.0005193
inclination: 97.3203°
perigee height: 479 km
apogee height: 486 km
right ascension of ascending node: 174.4797°
argument of perigee: 347.8728°
revolutions per day: 15.27842863
mean anomaly at epoch: 12.2385°
orbit number at epoch: 23168

The dashed part of the orbit path shows where the satellite is in the earth's shadow,  

DLR